This is the latest recevied weather packets stored in our database for station/object HB9GPU-10. If no packets are shown the sender has not sent any weather packets the latest 10 day(s).
| Time | Temp. | Humidity | Pressure | Rain* | Wind** | Luminosity | Snow |
|---|---|---|---|---|---|---|---|
| 1788620677 | 25° C | 42% | 1028.2 hPa | - | - | - | - |
| 1788619777 | 25.56° C | 40% | 1028 hPa | - | - | - | - |
| 1788618877 | 25° C | 41% | 1028 hPa | - | - | - | - |
| 1788617976 | 25° C | 42% | 1028 hPa | - | - | - | - |
| 1788617076 | 25° C | 41% | 1027.9 hPa | - | - | - | - |
| 1788616176 | 25° C | 41% | 1027.8 hPa | - | - | - | - |
| 1788615276 | 25° C | 42% | 1027.7 hPa | - | - | - | - |
| 1788614376 | 25° C | 41% | 1027.6 hPa | - | - | - | - |
| 1788613475 | 24.44° C | 41% | 1027.6 hPa | - | - | - | - |
| 1788612575 | 25° C | 40% | 1027.6 hPa | - | - | - | - |
| 1788611675 | 25° C | 39% | 1027.7 hPa | - | - | - | - |
| 1788610775 | 24.44° C | 42% | 1027.7 hPa | - | - | - | - |
| 1788609875 | 25° C | 40% | 1027.5 hPa | - | - | - | - |
| 1788608975 | 25° C | 38% | 1027.7 hPa | - | - | - | - |
| 1788608074 | 25.56° C | 37% | 1027.5 hPa | - | - | - | - |
| 1788607174 | 25° C | 39% | 1027.7 hPa | - | - | - | - |
| 1788606274 | 25° C | 40% | 1027.6 hPa | - | - | - | - |
| 1788605374 | 24.44° C | 41% | 1027.8 hPa | - | - | - | - |
| 1788604474 | 25.56° C | 38% | 1027.7 hPa | - | - | - | - |
| 1788603574 | 25° C | 38% | 1027.6 hPa | - | - | - | - |
| 1788602673 | 25° C | 38% | 1027.6 hPa | - | - | - | - |
| 1788601773 | 23.33° C | 44% | 1027.7 hPa | - | - | - | - |
| 1788600873 | 23.33° C | 44% | 1027.7 hPa | - | - | - | - |
| 1788599973 | 23.33° C | 45% | 1027.6 hPa | - | - | - | - |
| 1788599073 | 23.33° C | 42% | 1027.4 hPa | - | - | - | - |
* Rain since midnight (hover to see other rain measurements)
** Current wind speed in m/s (hover to see current wind gust speed)